Wind_Speed
31 31 32 33 34 35 36 38 38 37 37 38 40 42 43 44 45 46 45 44 41 40 40 40 38 36 34 32 30 28 26 25 24 23 23 23 23 24 24 24 24 23 23
29 29 30 32 32 32 32 33 33 34 34 36 38 41 44 45 47 49 49 48 46 44 43 43 41 39 37 37 35 33 30 29 27 26 25 25 25 24 25 25 25 25 24
27 26 24 24 26 27 28 29 30 32 36 39 40 42 44 45 46 49 52 52 51 48 47 46 44 43 40 39 39 37 35 33 32 30 28 27 27 26 26 26 26 26 26
23 23 24 25 26 27 29 30 32 37 39 41 43 45 46 49 49 48 50 53 54 54 51 48 46 46 43 41 40 40 39 37 36 35 34 32 30 29 29 28 28 28 27
23 23 24 26 26 26 26 28 30 33 33 32 35 38 41 45 47 50 52 51 53 54 53 52 48 46 46 45 44 43 42 40 41 40 39 38 36 34 32 31 30 29 29
23 23 25 26 25 26 27 28 29 30 31 32 35 37 37 39 44 51 51 48 53 53 54 52 49 49 48 51 49 44 44 45 43 43 37 44 42 41 37 35 33 33 32
22 22 22 23 23 24 25 26 29 30 29 32 39 42 42 40 40 41 48 50 52 50 50 52 49 47 47 49 52 47 50 51 51 32 37 39 39 41 38 44 41 38 35
23 23 22 21 21 22 23 24 27 29 30 33 40 38 41 40 38 35 36 39 44 46 43 48 49 47 44 50 39 47 51 35 32 34 35 36 37 37 41 40 47 43 41
22 21 21 21 22 22 23 25 26 29 31 28 30 33 38 37 34 25 21 24 29 32 36 38 46 40 48 37 43 43 36 31 33 35 36 36 40 43 43 36 41 47 46
19 20 20 21 20 21 23 25 26 27 30 31 27 28 28 29 31 30 25 18 21 26 31 36 41 32 29 49 43 32 35 35 37 38 36 39 38 42 40 44 47 42 47
20 19 19 19 20 21 22 24 26 29 30 32 31 26 21 19 23 27 35 12 16 11 23 21 39 35 30 28 33 37 32 33 36 37 37 42 44 41 43 38 36 41 52
21 21 22 22 23 23 24 25 25 26 28 30 28 26 25 22 18 18 16 13 16 25 27 24 24 25 36 40 38 34 34 35 36 37 40 43 43 41 37 36 31 30 34
22 22 22 23 23 24 24 25 25 26 26 27 27 24 23 20 21 20 18 19 19 19 24 29 28 28 35 36 41 35 39 36 41 43 44 45 40 37 36 37 37 35 34
22 22 23 23 24 24 24 25 25 25 25 24 24 26 23 21 23 25 21 19 20 24 29 27 29 30 29 27 30 33 44 45 48 46 52 47 48 48 40 39 36 40 46
25 25 25 26 26 26 25 25 25 24 24 24 23 21 21 21 24 24 22 21 20 21 26 28 30 31 35 36 36 32 49 43 37 49 42 33 41 43 37 39 40 43 40
26 27 27 27 26 26 26 25 25 24 24 22 22 22 21 21 22 23 23 23 23 23 25 25 27 28 26 27 28 35 46 45 42 33 31 34 29 33 35 33 37 38 39
26 27 27 27 27 26 26 24 23 23 23 22 20 20 20 20 20 21 22 23 24 25 25 26 27 27 27 29 31 32 32 30 34 35 37 32 29 32 28 33 40 41 42
27 27 27 27 26 25 24 23 21 20 20 21 22 21 20 20 21 21 21 22 22 23 24 25 26 28 30 31 31 31 32 33 35 34 34 36 39 35 37 39 43 43 42
28 28 27 26 25 24 22 21 20 20 21 22 23 24 25 24 23 23 24 24 24 25 26 26 26 26 26 26 27 30 32 33 34 35 35 35 38 40 42 43 44 48 50
28 29 28 27 26 24 22 21 20 22 23 24 23 23 23 25 26 27 27 28 27 27 28 29 29 29 29 29 29 28 28 31 34 34 36 38 40 42 44 42 44 46 48
29 30 29 28 26 24 22 21 23 24 24 23 23 24 24 25 26 25 26 28 29 29 28 27 28 29 31 31 30 30 32 30 31 33 35 36 37 39 41 41 42 43 47
30 31 29 28 26 25 22 21 25 25 23 23 25 25 26 27 27 27 27 27 27 28 28 25 24 25 25 26 28 29 29 30 33 33 35 33 37 37 38 40 41 42 44
31 31 29 28 26 25 23 24 24 25 23 25 27 26 26 27 27 27 27 25 25 24 25 24 24 24 25 27 28 28 30 30 30 32 34 32 34 35 37 38 40 40 41
31 31 30 28 27 25 24 25 25 24 25 26 27 28 27 27 27 26 23 20 20 21 24 27 29 31 32 31 33 34 34 34 34 34 36 37 36 36 34 36 38 38 40
32 31 30 28 27 26 24 24 24 23 25 26 28 27 27 27 27 23 19 19 20 23 27 30 31 31 32 34 34 35 34 34 33 33 32 36 38 39 38 36 37 39 39
33 32 30 29 27 25 24 24 23 24 25 26 27 28 28 26 22 21 21 22 24 25 26 27 29 31 32 33 33 34 33 32 32 32 29 32 33 33 37 35 35 35 36
Wind_Direction
286 286 285 284 283 282 282 282 281 279 275 273 272 270 267 263 262 265 264 263 258 258 257 254 251 251 254 253 252 251 252 252 252 253 253 252 252 250 249 247 243 241 241
289 290 290 290 289 288 286 285 284 282 281 280 277 272 271 267 264 261 262 262 260 256 256 255 253 250 250 254 254 252 251 253 252 252 253 253 251 249 249 249 249 247 243
299 298 296 295 294 293 292 291 288 285 284 281 277 274 273 270 267 264 262 259 259 256 256 253 252 251 249 250 254 255 254 253 254 254 253 253 253 251 249 247 247 246 246
300 299 299 299 298 297 293 289 287 285 285 284 283 281 276 271 266 261 260 261 257 256 252 252 252 251 250 249 250 254 253 252 253 253 252 252 251 251 250 247 246 244 244
302 300 299 298 298 295 291 291 292 291 290 287 283 279 278 275 272 267 262 256 255 253 252 251 250 250 250 249 248 249 251 251 250 250 250 249 248 248 248 248 247 246 244
306 306 305 301 301 299 298 297 298 302 300 300 298 296 291 282 272 268 265 259 251 248 249 248 250 250 251 249 249 248 250 250 251 252 251 250 247 250 245 246 246 245 244
308 310 309 309 309 305 300 302 305 305 305 306 309 306 300 298 288 278 268 261 254 246 248 248 251 251 253 251 249 249 247 252 245 254 252 257 256 256 249 261 245 244 242
314 313 311 313 310 310 311 314 315 315 317 315 318 313 307 301 299 289 281 269 254 245 251 248 250 254 255 251 254 261 245 252 253 250 247 248 251 254 259 262 253 243 242
312 313 313 311 310 312 314 315 315 316 320 323 324 317 311 310 302 286 276 266 249 244 247 251 247 256 249 247 247 246 239 249 249 251 250 249 251 253 249 255 254 250 247
316 316 313 309 310 315 319 322 323 326 328 324 319 313 305 300 297 293 266 262 238 242 249 246 245 247 270 251 248 233 234 242 252 248 248 248 254 254 255 255 255 254 253
314 314 314 315 318 320 319 320 321 323 325 329 322 326 312 291 281 313 296 270 270 255 243 264 252 251 256 240 243 228 233 243 250 249 246 245 246 255 252 248 249 256 248
311 311 314 316 317 318 319 318 318 320 322 324 326 321 314 311 297 293 311 291 284 276 270 261 272 260 259 273 246 250 245 243 241 247 254 246 247 247 244 241 246 255 254
309 311 311 311 312 314 314 315 316 318 318 319 322 320 305 299 305 298 292 282 274 270 272 274 277 272 269 273 276 254 260 250 248 244 237 240 242 240 239 247 239 239 236
300 302 303 304 306 308 309 312 313 314 314 314 314 318 311 305 289 292 290 289 277 279 276 275 276 281 283 277 265 248 261 252 256 251 237 240 234 241 239 235 243 247 246
300 300 301 303 304 304 306 307 308 309 310 309 309 306 301 296 295 299 296 286 281 272 271 273 278 277 273 269 271 273 260 258 234 231 248 232 234 245 243 244 248 244 247
297 298 299 300 301 302 303 305 306 306 307 307 306 305 303 297 292 290 288 287 282 279 277 277 275 278 279 277 271 263 262 274 271 253 247 248 240 240 239 239 246 250 251
296 297 298 300 301 302 303 304 304 303 304 306 306 303 303 303 300 297 294 291 288 284 281 281 279 278 275 273 274 274 269 268 261 255 263 265 263 252 245 246 245 250 253
297 299 299 299 300 301 301 302 302 301 302 303 304 305 302 301 302 300 298 295 291 287 284 282 280 277 276 273 270 270 273 272 271 271 266 272 271 267 260 256 253 251 251
298 300 299 299 300 299 299 299 299 300 302 302 301 300 300 300 299 297 294 292 291 291 289 287 284 282 279 277 275 276 278 275 272 271 270 270 269 270 265 260 257 252 252
295 299 298 298 299 297 296 294 295 298 301 301 300 300 299 299 298 298 298 296 292 288 287 288 288 289 288 286 283 279 275 274 274 269 267 264 262 264 265 263 259 257 254
294 298 297 297 296 294 292 292 297 300 301 300 301 301 300 299 297 295 294 295 294 292 289 286 284 283 282 282 280 277 276 273 271 270 271 271 264 262 262 261 259 258 257
292 297 295 295 294 292 289 293 298 299 300 299 300 301 301 301 299 298 297 295 293 292 291 291 290 288 287 286 285 284 280 276 274 271 268 268 270 268 265 263 262 259 257
290 294 292 292 290 289 289 295 298 297 300 301 301 301 302 301 300 298 297 296 295 296 297 298 298 297 295 292 289 285 284 283 280 278 277 271 266 264 267 266 264 262 260
287 291 290 289 288 286 291 296 298 299 302 303 303 304 304 304 302 299 295 294 295 298 299 300 301 300 298 295 293 292 289 285 282 280 277 275 270 268 263 263 264 264 263
284 287 286 285 284 285 291 295 296 301 301 303 302 303 303 304 302 296 294 294 296 299 300 301 300 298 297 298 298 296 296 293 291 286 285 279 273 270 266 264 263 262 263
280 282 282 283 281 282 288 294 299 302 302 302 301 303 302 301 294 291 294 297 298 300 301 300 298 298 297 297 298 298 298 296 295 294 294 288 287 284 273 264 263 262 262
Height
3125 3123 3121 3119 3117 3115 3114 3113 3112 3111 3111 3110 3110 3109 3110 3111 3111 3110 3110 3110 3112 3111 3112 3113 3113 3114 3114 3116 3117 3118 3118 3119 3120 3120 3121 3121 3122 3122 3123 3124 3125 3125 3127
3119 3117 3115 3113 3111 3109 3107 3106 3105 3103 3102 3101 3100 3100 3099 3100 3100 3100 3100 3101 3102 3103 3102 3104 3105 3106 3108 3109 3110 3111 3112 3113 3114 3114 3115 3116 3116 3117 3118 3119 3121 3122 3122
3114 3111 3109 3107 3105 3103 3101 3099 3097 3096 3094 3092 3091 3090 3089 3087 3087 3089 3090 3090 3091 3093 3093 3093 3095 3097 3099 3101 3102 3104 3105 3107 3108 3109 3109 3110 3111 3112 3112 3113 3115 3116 3118
3108 3105 3104 3102 3100 3098 3095 3093 3090 3088 3085 3083 3081 3079 3077 3076 3075 3073 3075 3078 3080 3081 3082 3083 3085 3087 3090 3091 3093 3095 3097 3099 3100 3101 3102 3103 3104 3105 3106 3107 3109 3110 3111
3103 3100 3098 3096 3094 3091 3089 3086 3084 3080 3077 3074 3071 3069 3067 3065 3063 3061 3061 3062 3065 3068 3070 3073 3075 3076 3079 3081 3083 3085 3087 3089 3091 3092 3093 3095 3097 3098 3099 3101 3102 3104 3105
3097 3095 3092 3090 3087 3085 3082 3079 3076 3073 3068 3065 3061 3058 3055 3052 3049 3048 3047 3048 3049 3054 3059 3061 3064 3066 3068 3071 3073 3075 3077 3079 3080 3080 3083 3086 3087 3089 3091 3093 3095 3097 3098
3093 3090 3087 3084 3081 3079 3077 3073 3069 3065 3062 3057 3050 3046 3041 3039 3036 3035 3034 3034 3036 3041 3045 3050 3053 3056 3057 3061 3063 3064 3066 3068 3071 3070 3074 3076 3077 3080 3082 3086 3087 3089 3091
3088 3085 3082 3079 3076 3073 3069 3065 3060 3056 3054 3049 3042 3035 3029 3029 3028 3024 3023 3021 3024 3030 3035 3039 3042 3045 3047 3049 3044 3053 3056 3055 3057 3062 3065 3066 3069 3071 3074 3077 3078 3079 3082
3083 3079 3076 3074 3071 3068 3064 3060 3055 3050 3046 3043 3038 3031 3022 3019 3016 3017 3015 3015 3017 3022 3028 3029 3032 3035 3038 3036 3033 3041 3041 3046 3051 3053 3055 3056 3059 3062 3064 3065 3067 3071 3073
3078 3074 3072 3069 3066 3062 3058 3054 3050 3045 3041 3036 3034 3029 3023 3018 3011 3008 3011 3008 3008 3015 3019 3020 3022 3026 3026 3028 3031 3024 3032 3035 3041 3043 3045 3048 3049 3051 3053 3056 3058 3060 3063
3074 3071 3068 3064 3061 3057 3053 3049 3045 3040 3036 3031 3026 3022 3019 3015 3012 3009 3004 3001 3004 2999 3008 3009 3011 3017 3015 3013 3016 3012 3018 3025 3031 3034 3036 3039 3040 3041 3042 3045 3047 3049 3051
3070 3067 3064 3060 3056 3052 3049 3045 3041 3036 3032 3028 3022 3018 3013 3011 3009 3008 3007 3005 3005 3004 3003 3005 3001 3005 3007 3004 3005 3011 3009 3015 3019 3024 3028 3029 3028 3030 3033 3036 3038 3039 3039
3065 3062 3059 3055 3052 3049 3045 3040 3036 3032 3028 3024 3020 3015 3012 3009 3007 3005 3003 3003 3002 3002 2999 2998 2999 3000 3004 3001 3000 3003 3007 3009 3010 3011 3011 3016 3021 3023 3024 3026 3029 3030 3032
3059 3056 3054 3050 3047 3043 3040 3036 3032 3027 3023 3019 3015 3012 3009 3006 3004 3002 3000 2999 2999 2997 2994 2994 2993 2993 2992 2995 2996 2991 2997 3001 2999 3000 3001 3005 3007 3011 3013 3015 3018 3021 3024
3055 3052 3049 3046 3042 3039 3035 3031 3027 3023 3019 3015 3011 3008 3006 3003 3001 2998 2996 2994 2992 2991 2989 2988 2987 2986 2986 2986 2986 2987 2987 2988 2990 2991 2991 2992 2994 2998 3002 3005 3007 3010 3013
3049 3046 3042 3039 3036 3033 3029 3026 3022 3018 3015 3012 3008 3004 3001 2998 2996 2994 2992 2990 2988 2986 2983 2982 2980 2979 2979 2979 2978 2980 2982 2981 2983 2983 2983 2980 2981 2987 2990 2992 2997 2999 3004
3042 3039 3036 3034 3030 3027 3024 3020 3017 3014 3010 3007 3003 3000 2997 2994 2991 2989 2987 2985 2983 2981 2978 2976 2974 2973 2972 2971 2972 2972 2972 2972 2973 2975 2973 2974 2975 2976 2978 2982 2985 2988 2992
3037 3034 3031 3028 3024 3021 3018 3015 3012 3009 3005 3002 3000 2996 2993 2990 2987 2984 2981 2979 2977 2975 2973 2970 2967 2966 2965 2965 2963 2962 2961 2961 2964 2965 2964 2965 2969 2969 2971 2973 2975 2976 2980
3031 3028 3025 3022 3019 3016 3012 3009 3006 3003 3000 2997 2994 2991 2988 2985 2982 2979 2977 2974 2971 2969 2967 2965 2963 2961 2959 2959 2958 2956 2954 2952 2951 2955 2956 2958 2960 2961 2961 2963 2962 2964 2969
3024 3021 3018 3015 3013 3010 3007 3004 3000 2997 2995 2991 2988 2985 2982 2979 2976 2973 2970 2968 2965 2962 2960 2958 2957 2954 2952 2950 2949 2949 2949 2947 2947 2946 2946 2947 2949 2947 2949 2949 2952 2951 2954
3017 3015 3012 3008 3005 3003 3000 2998 2996 2993 2989 2985 2982 2979 2976 2973 2970 2967 2964 2961 2958 2956 2953 2952 2950 2949 2947 2945 2943 2942 2941 2940 2939 2937 2936 2934 2933 2935 2935 2937 2938 2939 2941
3010 3008 3005 3002 2999 2997 2994 2992 2989 2986 2982 2980 2976 2972 2969 2966 2962 2959 2956 2953 2951 2948 2947 2945 2943 2941 2939 2937 2934 2932 2931 2931 2930 2928 2926 2926 2924 2924 2924 2924 2925 2927 2928
3003 3000 2998 2995 2992 2989 2987 2985 2982 2978 2975 2972 2970 2966 2962 2959 2956 2952 2949 2945 2943 2940 2939 2937 2936 2934 2932 2929 2927 2925 2923 2921 2919 2918 2916 2917 2915 2916 2912 2913 2913 2915 2915
2995 2993 2990 2988 2986 2983 2980 2977 2975 2971 2969 2966 2963 2959 2955 2952 2948 2945 2943 2940 2938 2935 2933 2931 2928 2925 2922 2920 2917 2915 2913 2911 2911 2908 2905 2904 2905 2904 2904 2902 2902 2903 2904
2986 2985 2982 2980 2978 2976 2973 2971 2968 2965 2961 2958 2955 2952 2948 2944 2941 2938 2936 2934 2933 2930 2927 2924 2921 2918 2915 2911 2908 2904 2903 2900 2898 2896 2895 2892 2891 2890 2892 2893 2891 2892 2891
2976 2975 2973 2971 2970 2968 2967 2965 2961 2958 2955 2952 2948 2945 2941 2937 2935 2932 2930 2928 2926 2923 2920 2917 2914 2910 2907 2903 2900 2896 2893 2890 2888 2886 2887 2883 2880 2879 2877 2880 2881 2881 2880